Weather History for KRME - February, 2013

Change the Weather History Date:

Tuesday, February 19, 2013

  Actual Average Record
Temperature  
Mean Temperature 27 °F -  
Max Temperature 33 °F 38 °F 62 °F (1981)
Min Temperature 21 °F 21 °F -10 °F (1993)
Degree Days  
Heating Degree Days 38    
Moisture  
Dew Point 24 °F    
Average Humidity 82    
Maximum Humidity 100    
Minimum Humidity 53    
Precipitation  
Precipitation 0.30 in - - ()
Sea Level Pressure  
Sea Level Pressure 29.75 in    
Wind  
Wind Speed 10 mph (East)    
Max Wind Speed 18 mph    
Max Gust Speed 24 mph    
Visibility 5 miles    
Events Fog , Rain , Snow    
Averages and records for this station are not official NWS values.
T = Trace of Precipitation, MM = Missing Value Source: NWS Daily Summary

Daily Weather History Graph

Daily Weather History Graph

Search for Another Location

Airport or City:

Trip Planner

Search our weather history database for the weather conditions in past years. The results will help you decide how hot, cold, wet, or windy it might be!

Date:

Astronomy

Feb. 19, 2013 Rise Set
Actual Time 6:53 AM EST 5:38 PM EST
Civil Twilight 6:24 AM EST 6:07 PM EST
Nautical Twilight 5:51 AM EST 6:40 PM EST
Astronomical Twilight 5:18 AM EST 7:13 PM EST
Moon 12:02 PM EST (2/19) 2:28 AM EST (2/19)
Length of Visible Light 11h 42m
Length of Day
10h 44m
Waxing Gibbous, 67% of the Moon is Illuminated
Feb 19
Waxing Gibbous
Feb 25
Full
Mar 4
Last Quarter
Mar 11
New
Mar 19
First Quarter

Hourly Weather History & Observations

Time (EST) Temp. Windchill Dew Point Humidity Pressure Visibility Wind Dir Wind Speed Gust Speed Precip Events Conditions
12:53 AM 23.0 °F 13.9 °F 9.0 °F 55% 30.09 in 10.0 mi ESE 8.1 mph - N/A   Overcast
1:53 AM 23.0 °F 12.4 °F 8.1 °F 53% 30.08 in 10.0 mi East 10.4 mph - N/A   Clear
3:53 AM 21.9 °F 11.7 °F 9.0 °F 58% 30.02 in 10.0 mi ESE 9.2 mph - N/A   Partly Cloudy
4:53 AM 21.9 °F 11.0 °F 9.0 °F 58% 29.99 in 10.0 mi ESE 10.4 mph - N/A   Scattered Clouds
5:53 AM 23.0 °F 11.1 °F 9.0 °F 55% 29.96 in 10.0 mi ESE 12.7 mph - N/A   Partly Cloudy
6:53 AM 21.9 °F 8.7 °F 9.0 °F 58% 29.92 in 10.0 mi East 15.0 mph - N/A   Clear
7:53 AM 23.0 °F 10.1 °F 10.0 °F 58% 29.89 in 10.0 mi ESE 15.0 mph - N/A   Clear
8:53 AM 26.1 °F 15.0 °F 12.0 °F 55% 29.87 in 10.0 mi ESE 12.7 mph - N/A   Clear
9:53 AM 28.0 °F 18.1 °F 14.0 °F 56% 29.84 in 10.0 mi ESE 11.5 mph - N/A   Mostly Cloudy
10:53 AM 30.0 °F 21.7 °F 16.0 °F 56% 29.81 in 10.0 mi ESE 9.2 mph - N/A   Mostly Cloudy
11:53 AM 30.9 °F 22.8 °F 19.0 °F 61% 29.76 in 6.0 mi ESE 9.2 mph - 0.00 in Snow Light Snow
12:43 PM 30.9 °F 24.3 °F 24.1 °F 76% 29.73 in 1.8 mi East 6.9 mph - 0.00 in Snow Light Snow
1:17 PM 30.0 °F 22.4 °F 28.0 °F 92% 29.71 in 0.5 mi East 8.1 mph - 0.02 in Fog , Snow Snow
1:30 PM 30.0 °F 21.1 °F 28.0 °F 92% 29.70 in 0.2 mi East 10.4 mph - 0.05 in Fog , Snow Snow
1:53 PM 30.9 °F 22.2 °F 28.9 °F 92% 29.71 in 0.5 mi East 10.4 mph - 0.07 in Fog , Snow Snow
2:02 PM 32.0 °F 23.0 °F 30.0 °F 92% 29.69 in 0.2 mi East 11.5 mph - 0.01 in Fog , Snow Heavy Snow
2:53 PM 32.0 °F 23.6 °F 30.0 °F 92% 29.69 in 0.5 mi East 10.4 mph - 0.07 in Fog , Snow Snow
3:08 PM 32.0 °F 24.2 °F 30.9 °F 96% 29.66 in 0.2 mi East 9.2 mph - 0.02 in Fog , Snow Heavy Snow
3:51 PM 30.2 °F 21.9 °F 30.2 °F 100% 29.64 in 0.5 mi ESE 9.2 mph - 0.08 in Fog , Snow Light Snow
3:53 PM 32.0 °F 24.2 °F 30.0 °F 92% 29.66 in 0.8 mi ESE 9.2 mph - 0.08 in Snow Light Snow
4:53 PM 33.1 °F 26.9 °F 32.0 °F 96% 29.65 in 1.2 mi East 6.9 mph - 0.04 in Snow Light Snow
5:04 PM 33.1 °F 26.1 °F 32.0 °F 96% 29.63 in 1.0 mi East 8.1 mph - 0.00 in Snow Light Snow
5:19 PM 33.1 °F 27.7 °F 32.0 °F 96% 29.63 in 1.0 mi East 5.8 mph - 0.01 in Snow Light Snow
5:29 PM 33.1 °F 28.7 °F 32.0 °F 96% 29.63 in 0.8 mi ESE 4.6 mph - 0.02 in Snow Light Snow
5:37 PM 33.1 °F 27.7 °F 32.0 °F 96% 29.64 in 1.0 mi ESE 5.8 mph - 0.02 in Snow Light Snow
5:53 PM 33.1 °F 28.7 °F 32.0 °F 96% 29.66 in 1.0 mi ESE 4.6 mph - 0.04 in Snow Light Snow
6:22 PM 33.1 °F 30.0 °F 32.0 °F 96% 29.65 in 3.0 mi East 3.5 mph - 0.03 in Snow Light Snow
7:23 PM 33.1 °F 26.9 °F 30.9 °F 92% 29.68 in 3.0 mi West 6.9 mph - 0.00 in Snow Light Snow
7:45 PM 33.1 °F 22.6 °F 30.0 °F 89% 29.68 in 6.0 mi WNW 16.1 mph - 0.00 in   Overcast
7:53 PM 32.0 °F 21.6 °F 30.0 °F 92% 29.71 in 7.0 mi WNW 15.0 mph - 0.00 in   Overcast
8:04 PM 32.0 °F 21.6 °F 30.0 °F 92% 29.70 in 4.0 mi WNW 15.0 mph - 0.00 in Rain Light Freezing Rain
8:11 PM 32.0 °F 20.5 °F 28.9 °F 88% 29.70 in 4.0 mi WNW 18.4 mph 24.2 mph 0.00 in Snow Light Snow
8:53 PM 30.0 °F 19.1 °F 27.0 °F 88% 29.73 in 3.0 mi NW 15.0 mph - 0.00 in Snow Light Snow
9:05 PM 30.0 °F 19.5 °F 27.0 °F 88% 29.71 in 2.0 mi WNW 13.8 mph - 0.00 in Snow Light Snow
9:25 PM 30.0 °F 20.5 °F 27.0 °F 88% 29.71 in 3.0 mi WNW 11.5 mph - 0.00 in Snow Light Snow
9:33 PM 30.0 °F 22.4 °F 27.0 °F 88% 29.71 in 2.5 mi WNW 8.1 mph - 0.00 in Snow Light Snow
9:41 PM 30.0 °F 23.2 °F 27.0 °F 88% 29.71 in 5.0 mi WNW 6.9 mph - 0.00 in Snow Light Snow
9:50 PM 30.2 °F 21.9 °F 26.6 °F 86% 29.71 in 8.0 mi WNW 9.2 mph - 0.00 in Snow Light Snow
9:53 PM 30.0 °F 22.4 °F 27.0 °F 88% 29.72 in 9.0 mi WNW 8.1 mph - 0.00 in   Overcast
10:50 PM 28.4 °F 17.5 °F 24.8 °F 86% 29.71 in 8.0 mi WNW 13.8 mph - 0.00 in Snow Light Snow
10:53 PM 28.9 °F 16.9 °F 25.0 °F 85% 29.72 in 9.0 mi WNW 17.3 mph - 0.00 in Snow Light Snow
11:23 PM 28.9 °F 18.6 °F 24.1 °F 82% 29.71 in 10.0 mi WNW 12.7 mph - 0.00 in   Overcast
11:53 PM 28.0 °F 18.1 °F 23.0 °F 81% 29.73 in 10.0 mi WNW 11.5 mph - 0.00 in   Overcast